Regional Weather Roundup
Issued by NWS Jackson, KY

Home | Current Version | Previous Version | Text Only | Print | Product List | Glossary Off
Versions: 1 2 3 4 5 6 7 8 9 10 11 12 13 14 15 16 17 18 19 20 21 22 23 24 25 26 27 28 29 30 31 32 33 34 35 36 37 38 39 40 41 42 43 44 45 46 47 48 49 50

000
ASUS43 KJKL 211310
RWRJKL

EAST KENTUCKY HOURLY WEATHER ROUNDUP
NATIONAL WEATHER SERVICE JACKSON KY
900 AM EDT MON AUG 21 2017

NOTE: "FAIR" INDICATES FEW OR NO CLOUDS BELOW 12,000 FEET WITH
NO SIGNIFICANT WEATHER AND/OR OBSTRUCTIONS TO VISIBILITY.

* THESE REPORTS ARE NOT UNDER NWS QUALITY CONTROL AND MAY NOT
  REPORT WEATHER SUCH AS PRECIPITATION AND FOG.

KYZ079-080-083-085-087-088-110-112-115-119-120-211400
...EASTERN KENTUCKY...

CITY           SKY/WX    TMP DP  RH WIND       PRES   REMARKS
JACKSON        SUNNY     73  68  84 CALM      30.24R
LONDON         SUNNY     72  68  87 CALM      30.24R
SOMERSET*      SUNNY     72  70  94 CALM      30.23S
MONTICELLO*    SUNNY     73  70  90 VRB6      30.24R
WILLIAMSBURG*  SUNNY     70  70 100 SE3       30.24R
MIDDLESBORO*   CLOUDY    67  67 100 CALM      30.27R FOG
HARLAN APT*    CLOUDY    68  64  88 CALM      30.28R
PIKE CO APT*     N/A     69  69 100 CALM      30.25S
BIG SANDY APT* SUNNY     74  72  95 CALM      30.24R
MOREHEAD APT*  SUNNY     73  68  83 S5        30.23S
$$

KYZ035-036-041-042-044-050-067-078-099-211400
...CENTRAL KENTUCKY...

CITY           SKY/WX    TMP DP  RH WIND       PRES   REMARKS
MT STERLING*   SUNNY     75  68  78 CALM      30.23S
FLEMING/MASON* SUNNY     75  69  80 S3        30.21S
DANVILLE*      SUNNY     73  68  83 SW5       30.23R
LEXINGTON      SUNNY     76  67  73 S5        30.20S
FRANKFORT      SUNNY     76  68  76 SE3       30.18S
LOUISVILLE     MOSUNNY   78  69  73 SE6       30.16S
LEBANON*         N/A     75  66  73 S3        30.20R
GLASGOW*       SUNNY     75  69  82 CALM      30.19S
BOWLING GREEN  SUNNY     75  71  87 CALM      30.19R
$$

KYZ091>093-OHZ055-061-077-WVZ005-015-034-035-042-211400
...SOUTHERN OHIO/WEST VIRGINIA...

CITY           SKY/WX    TMP DP  RH WIND       PRES   REMARKS
COVINGTON      MOSUNNY   76  70  82 S6        30.16F
COLUMBUS       PTSUNNY   75  70  84 S5        30.16R
DAYTON         CLOUDY    76  68  76 SW6       30.17R
WILMINGTON     SUNNY     77  71  82 SW5       30.18R
HUNTINGTON     SUNNY     73  70  90 S5        30.20S
CHARLESTON     MOSUNNY   70  67  90 CALM      30.22R
PINEVILLE*     SUNNY     68  66  93 MISG      30.33R
BECKLEY        SUNNY     74  65  73 VRB3      30.31R
BLUEFIELD      SUNNY     73  62  68 W5        30.34R
LOGAN CO APT*    N/A     72  68  88 CALM      30.26R
$$

VAZ002-007-008-TNZ017-027-036-066-071-211400
...SOUTHWEST VIRGINIA/EAST TENNESSEE...

CITY           SKY/WX    TMP DP  RH WIND       PRES   REMARKS
WISE*          SUNNY     75  64  69 SW3       30.34R
JONESVILLE*      N/A     72  68  88 CALM      30.29R
ABINGDON*      SUNNY     75  69  80 E5        30.30S
BRISTOL        MOSUNNY   73  69  87 CALM      30.27R
MORRISTOWN*    SUNNY     75  70  83 CALM      30.25R
SEVIERVILLE*   SUNNY     73  64  73 CALM      30.23S
KNOXVILLE      MOSUNNY   74  68  81 CALM      30.22R
LAFOLLETTE*    SUNNY     72  70  94 CALM      30.28S
OAK RIDGE      CLOUDY    71  69  93 CALM      30.24R FOG
CROSSVILLE     SUNNY     73  68  84 CALM      30.27R
NASHVILLE      MOSUNNY   78  71  79 CALM      30.18R
$$

...KEY TO REMARKS...
VSB - VISIBILITY IN MILES
WCI - WIND CHILL INDEX
HX  - HEAT INDEX

$$



USA.gov is the U.S. government's official web portal to all federal, state and local government web resources and services.